Change the Weather History Date:

Monday, November 22, 2010

  Actual Average Record
Temperature  
Mean Temperature 48 °F 50 °F  
Max Temperature 58 °F 62 °F 72 °F (2005)
Min Temperature 38 °F 37 °F 29 °F (2003)
Degree Days  
Heating Degree Days 17    
Month to date heating degree days 200  
Since 1 July heating degree days 292  
Cooling Degree Days 0    
Month to date cooling degree days 6  
Year to date cooling degree days 1607  
Moisture  
Dew Point 40 °F    
Average Humidity 72    
Maximum Humidity 93    
Minimum Humidity 51    
Precipitation  
Precipitation 0.01 in 0.03 in 0.04 in (2001)
Month to date precipitation 0.93 0.84  
Year to date precipitation 8.18 8.31  
Since 1 July precipitation 1.69 1.55  
Snow  
Snow 0.00 in - - ()
Month to date snowfall 0.0  
Since 1 July snowfall 0.0  
Since 1 September snowfall 0.0  
Snow Depth 0.00 in    
Sea Level Pressure  
Sea Level Pressure 30.22 in    
Wind  
Wind Speed 2 mph (South)    
Max Wind Speed 12 mph    
Max Gust Speed -    
Visibility 9 miles    
Events Rain    
T = Trace of Precipitation, MM = Missing Value Source: NWS Daily Summary

Daily Weather History Graph

Daily Weather History Graph

Search for Another Location

Airport or City:

Trip Planner

Search our weather history database for the weather conditions in past years. The results will help you decide how hot, cold, wet, or windy it might be!

Date:

Astronomy

Nov. 22, 2010 Rise Set
Actual Time 6:42 AM PST 4:46 PM PST
Civil Twilight 6:14 AM PST 5:14 PM PST
Nautical Twilight 5:43 AM PST 5:45 PM PST
Astronomical Twilight 5:12 AM PST 6:16 PM PST
Moon 5:35 PM PST (11/22) 7:46 AM PST (11/22)
Length of Visible Light 10h 59m
Length of Day
10h 03m
Full, 99% of the Moon is Illuminated
Nov 22
Full
Nov 28
Last Quarter
Dec 5
New
Dec 13
First Quarter
Dec 21
Full

Hourly Weather History & Observations

Time (PST) Temp. Windchill Dew Point Humidity Pressure Visibility Wind Dir Wind Speed Gust Speed Precip Events Conditions
12:53 AM 42.1 °F - 39.0 °F 89% 30.18 in 9.0 mi Calm Calm - N/A   Clear
1:53 AM 44.1 °F - 41.0 °F 89% 30.20 in 10.0 mi Calm Calm - N/A   Overcast
2:53 AM 44.1 °F - 41.0 °F 89% 30.22 in 10.0 mi Calm Calm - N/A   Overcast
3:53 AM 44.1 °F 42.5 °F 41.0 °F 89% 30.22 in 6.0 mi ENE 3.5 mph - 0.01 in Rain Light Rain
4:53 AM 44.1 °F 40.8 °F 42.1 °F 93% 30.22 in 7.0 mi NE 5.8 mph - 0.00 in   Overcast
5:53 AM 45.0 °F 42.6 °F 41.0 °F 86% 30.22 in 10.0 mi NE 4.6 mph - N/A   Overcast
6:53 AM 42.1 °F - 39.9 °F 92% 30.24 in 9.0 mi Calm Calm - N/A   Mostly Cloudy
7:53 AM 46.0 °F - 42.1 °F 86% 30.24 in 9.0 mi Calm Calm - N/A   Clear
8:53 AM 48.9 °F - 43.0 °F 80% 30.26 in 10.0 mi SSW 3.5 mph - N/A   Clear
9:53 AM 52.0 °F - 42.1 °F 69% 30.27 in 10.0 mi Calm Calm - N/A   Clear
10:53 AM 54.0 °F - 41.0 °F 62% 30.27 in 10.0 mi WSW 4.6 mph - N/A   Mostly Cloudy
11:14 AM 53.6 °F - 41.0 °F 62% 30.26 in 10.0 mi Calm Calm - N/A   Mostly Cloudy
11:53 AM 55.0 °F - 39.9 °F 57% 30.26 in 10.0 mi West 4.6 mph - N/A   Scattered Clouds
12:53 PM 57.9 °F - 41.0 °F 53% 30.24 in 10.0 mi Variable 4.6 mph - N/A   Mostly Cloudy
1:53 PM 57.0 °F - 39.9 °F 53% 30.22 in 10.0 mi Calm Calm - N/A   Clear
2:53 PM 55.9 °F - 39.9 °F 55% 30.20 in 10.0 mi Calm Calm - N/A   Clear
3:53 PM 57.0 °F - 39.0 °F 51% 30.19 in 10.0 mi Calm Calm - N/A   Clear
4:53 PM 50.0 °F - 43.0 °F 77% 30.19 in 10.0 mi South 3.5 mph - N/A   Clear
5:53 PM 46.0 °F - 41.0 °F 83% 30.19 in 10.0 mi Calm Calm - N/A   Clear
6:53 PM 45.0 °F - 39.9 °F 82% 30.20 in 10.0 mi Calm Calm - N/A   Clear
7:53 PM 42.1 °F 40.2 °F 39.0 °F 89% 30.19 in 9.0 mi South 3.5 mph - N/A   Clear
8:53 PM 42.1 °F 40.2 °F 37.9 °F 85% 30.20 in 7.0 mi SSW 3.5 mph - N/A   Clear
9:53 PM 42.1 °F 40.2 °F 39.0 °F 89% 30.21 in 8.0 mi SW 3.5 mph - N/A   Mostly Cloudy
10:53 PM 41.0 °F - 39.0 °F 93% 30.20 in 7.0 mi Calm Calm - N/A   Partly Cloudy
11:53 PM 37.9 °F 35.5 °F 37.0 °F 97% 30.21 in 4.0 mi East 3.5 mph - N/A   Clear